Location: Newark
(25.4800°N, 85.7200°E)
Time: 02:33:07
(UTC+00:00)

Explorer 11/Cluster Stage 4 - Pass Details

Date: 19 August 2019
Orbit: 467 x 1259 km, 28.8° (Epoch: 17 October)

Event Time Altitude Azimuth Distance (km) Brightness Sun altitude
Rises 06:57:47 0° 259° (W) 4,191 10.5 74.7°
Reaches altitude 10° 07:00:48 10° 261° (W) 3,196 10.0 74.2°
Maximum altitude 07:08:56 81° 348° (NNW) 1,153 9.0 73.0°
Drops below altitude 10° 07:15:54 10° 76° (ENE) 2,765 9.3 71.9°
Sets 07:18:21 0° 77° (ENE) 3,602 9.8 71.5°
